Home   Weather   Mariehamn   Past weeks

Flag for Åland Islands Past Weather in Mariehamn, Åland Islands — Yesterday and Last 2 Weeks

Now
54 °F

Passing clouds.


Feels Like: 50 °F
Forecast: 44 / 58 °F
Wind: 13 mph from West

Location: Mariehamn / Aland Island

Current Time: Oct 1, 2016 at 11:54:07 AM

Latest Report: Oct 1, 2016 at 11:20 AM


Visibility: N/A

Pressure: 29.59 "Hg

Humidity: 63%

Dew Point: 41 °F

Location of MariehamnLocation

Past Weather in Mariehamn — Graph

°F

Mariehamn Temperature Yesterday

Maximum temperature yesterday: 59 °F (at 1:50 PM)
Minimum temperature yesterday: 54 °F (at 5:20 AM)
Average temperature yesterday: 57 °F

High & Low Weather Summary for the Past Weeks

 TemperatureHumidityPressure
High63 °F (Sep 19, 2:20 PM)100% (Sep 17, 12:50 AM)30.30 "Hg (Sep 17, 12:50 AM)
Low32 °F (Sep 18, 6:50 AM)48% (Sep 30, 4:20 PM)29.09 "Hg (Sep 30, 2:20 AM)
Average53 °F82%30.00 "Hg
* Reported Sep 16 10:20 AM — Oct 1 10:20 AM, Mariehamn, Weather by CustomWeather, © 2016

Note: Actual official high and low records may vary slightly from our data, if they occured in-between our weather recording intervals... More about our weather records

Advertising

Mariehamn Weather History for the Previous 24 Hours

Scroll right to see more
 ConditionsComfort  
Time TempWeatherWind HumidityBarometerVisibility
10:20 AM
Sat, Oct 1
52 °FPassing clouds.15 mph67%29.56 "HgN/A
9:50 AM52 °FPassing clouds.15 mph67%29.56 "HgN/A
9:20 AM52 °FPassing clouds.13 mph67%29.53 "HgN/A
8:50 AM52 °FPassing clouds.14 mph67%29.53 "HgN/A
8:20 AM52 °FPassing clouds.13 mph72%29.50 "HgN/A
7:50 AM52 °FPassing clouds.14 mph72%29.47 "HgN/A
7:20 AM52 °FPassing clouds.14 mph77%29.47 "HgN/A
6:50 AM52 °FPassing clouds.16 mph77%29.47 "HgN/A
6:20 AM52 °FPassing clouds.16 mph77%29.45 "HgN/A
5:50 AM52 °FPassing clouds.17 mph77%29.45 "HgN/A
5:20 AM52 °FPassing clouds.16 mph77%29.45 "HgN/A
4:50 AM52 °FPassing clouds.16 mph82%29.45 "HgN/A
4:20 AM54 °FPassing clouds.15 mph77%29.45 "HgN/A
3:50 AM52 °FPassing clouds.15 mph82%29.45 "HgN/A
3:20 AM52 °FPassing clouds.14 mph77%29.45 "HgN/A
2:50 AM54 °FPassing clouds.16 mph72%29.45 "HgN/A
2:20 AM54 °FClear.16 mph72%29.45 "Hg10 mi
1:50 AM54 °FPassing clouds.15 mph72%29.45 "HgN/A
1:20 AM54 °FPassing clouds.15 mph72%29.45 "HgN/A
12:50 AM54 °FPassing clouds.16 mph72%29.45 "HgN/A
12:20 AM54 °FPassing clouds.15 mph67%29.45 "HgN/A
11:50 PM
Fri, Sep 30
54 °FPassing clouds.14 mph67%29.45 "HgN/A
11:20 PM54 °FPassing clouds.14 mph67%29.45 "HgN/A
10:50 PM55 °FPassing clouds.17 mph59%29.42 "HgN/A
10:20 PM55 °FPassing clouds.16 mph59%29.42 "HgN/A
9:50 PM55 °FPassing clouds.14 mph59%29.45 "HgN/A
9:20 PM55 °FPassing clouds.15 mph59%29.42 "HgN/A
8:50 PM55 °FPassing clouds.13 mph59%29.42 "HgN/A
8:20 PM55 °FPassing clouds.14 mph59%29.42 "HgN/A
7:50 PM57 °FPassing clouds.16 mph55%29.42 "HgN/A
7:20 PM57 °FPassing clouds.15 mph59%29.39 "HgN/A
6:50 PM57 °FSunny.14 mph59%29.39 "Hg10 mi
6:20 PM57 °FPassing clouds.15 mph59%29.39 "HgN/A
5:50 PM59 °FPassing clouds.14 mph51%29.39 "HgN/A
5:20 PM59 °FPassing clouds.13 mph51%29.39 "HgN/A
4:50 PM59 °FPassing clouds.12 mph51%29.39 "HgN/A
4:20 PM59 °FPassing clouds.15 mph48%29.39 "HgN/A
3:50 PM59 °FPassing clouds.15 mph51%29.36 "HgN/A
3:20 PM59 °FPassing clouds.16 mph51%29.36 "HgN/A
2:50 PM59 °FPassing clouds.16 mph51%29.36 "HgN/A
2:20 PM59 °FPassing clouds.17 mph55%29.33 "HgN/A
1:50 PM59 °FPassing clouds.17 mph51%29.33 "HgN/A
1:20 PM57 °FPassing clouds.18 mph55%29.30 "HgN/A
12:50 PM57 °FPassing clouds.16 mph55%29.30 "HgN/A
12:20 PM57 °FPassing clouds.16 mph59%29.30 "HgN/A
11:50 AM55 °FPassing clouds.18 mph63%29.27 "HgN/A
11:20 AM55 °FPassing clouds.17 mph63%29.24 "HgN/A
Weather by CustomWeather, © 2016

See weather overviewHow to use our weather pages